Regional Weather Roundup
Issued by NWS

Home | Current Version | Previous Version | Graphics & Text | Print | Product List | Glossary On
Versions: 1 2 3 4 5 6 7 8 9 10 11 12 13 14 15 16 17 18 19 20 21 22 23 24 25 26 27 28 29 30 31 32 33 34 35 36 37 38 39 40 41 42 43 44 45 46 47 48 49 50
627
ASUS43 KLMK 120910
RWRKY
KENTUCKY REGIONAL WEATHER ROUNDUP
NATIONAL WEATHER SERVICE LOUISVILLE KY
400 AM EST FRI FEB 12 2016

NOTE "FAIR" INDICATES FEW OR NO CLOUDS BELOW 12,000 FEET
WITH NO SIGNIFICANT WEATHER AND/OR OBSTRUCTIONS TO VISIBILITY.

KYZ001>023-026-027-061>063-070>075-121000-
WESTERN AND SOUTH CENTRAL KENTUCKY

CITY           SKY/WX    TMP DP  RH WIND       PRES   REMARKS
PADUCAH        CLOUDY    29  22  75 NE8       30.19F WCI  21
HENDERSON      CLOUDY    28  16  59 CALM      30.22F
OWENSBORO      CLOUDY    28  17  63 NW3       30.23R
HOPKINSVILLE   PTCLDY    30  18  61 NE5       30.18F WCI  26
BOWLING GREEN  CLOUDY    32  18  56 CALM      30.20R
GLASGOW        CLOUDY    28  18  65 CALM      30.18R
$$

KYZ024-025-028>034-038-045-046-053-121000-
NORTH CENTRAL KENTUCKY

CITY           SKY/WX    TMP DP  RH WIND       PRES   REMARKS
LOUISVILLE/SDF CLOUDY    27  10  49 E6        30.19F WCI  20
LOUISVILLE/LOU CLOUDY    26  12  55 NE5       30.20F WCI  20
FORT KNOX      CLOUDY    25  12  58 E5        30.17R WCI  19
$$

KYZ035>037-039>044-047>052-055>060-089>105-121000-
NORTHEAST KENTUCKY

CITY           SKY/WX    TMP DP  RH WIND       PRES   REMARKS
LEXINGTON      CLOUDY    24  13  62 SE3       30.19F
COVINGTON      CLOUDY    20   8  60 SE3       30.20F
FRANKFORT      CLOUDY    24  13  62 E5        30.20F WCI  18
$$

KYZ054-064>069-076>088-106>120-121000-
SOUTHEAST KENTUCKY

CITY           SKY/WX    TMP DP  RH WIND       PRES   REMARKS
JACKSON        CLOUDY    21   8  57 NE3       30.16F
LONDON         CLOUDY    24  12  60 N6        30.16F WCI  17
SOMERSET       MOCLDY    25  14  63 NE5       30.20S WCI  19
MIDDLESBORO    CLOUDY    27  21  77 CALM      30.16F
MONTICELLO     CLOUDY    27  17  66 NW6       30.17  WCI  20
$$





USA.gov is the U.S. government's official web portal to all federal, state and local government web resources and services.